Tracking 28125 objects as of 3-Oct-2023
HD Live streaming from Space Station
objects crossing your sky now

STARLINK-4612

Track STARLINK-4612 now!
10-day predictions
STARLINK-4612 is classified as:


NORAD ID: 53750
Int'l Code: 2022-107BC
Perigee: 545.8 km
Apogee: 547.9 km
Inclination: 53.2 °
Period: 95.4 minutes
Semi major axis: 6917 km
RCS: Unknown
Launch date: September 5, 2022
Source: United States (US)
Launch site: AIR FORCE EASTERN TEST RANGE (AFETR)
Your satellite tracking list
Your tracking list is empty




NASA's NSSDC Master Catalog

Two Line Element Set (TLE):
1 53750U 22107BC  23276.10369650  .00004950  00000-0  32880-3 0  9994
2 53750  53.2165 293.3845 0001520  86.8006 273.3160 15.08845789 59667
Source of the keplerian elements: AFSPC